Terminal Aerodrome Forecast
Issued by NWS

Home | Current Version | Previous Version | Text Only | Print | Product List | Glossary On
Versions: 1 2 3 4 5 6 7 8 9 10 11 12 13 14 15 16 17 18 19 20 21 22 23 24 25 26 27 28 29 30
000
FTUS41 KBOX 301435 AAA
TAFBAF
TAF AMD
KBAF 301435Z 3015/3112 00000KT 2SM -SN BR BKN004 OVC035
     FM301700 33005KT P6SM OVC020
     FM302200 32011G24KT P6SM OVC045
     FM311100 32016G27KT P6SM SCT090=

USA.gov is the U.S. government's official web portal to all federal, state and local government web resources and services.